Zurück zum Katalog

COSMOS 2501

GLONASS

AktivNavigationMEO
NORAD 40315·PAYLOAD·🇷🇺 Russia

Gestartet Nov 30, 2014 von Plesetsk Cosmodrome

Loading…

Nächste Überflüge (nächste 24 Stunden)

TLE

AktuellSource: CelesTrak SupGP

Epoche: Sep 13, 2026, 23:59 UTC

1 40315C 14075A   26256.99979167  .00000000  00000+0  00000+0 0  2562
2 40315  63.6167 187.3001 0021952 209.6397 157.2163  2.13101473    17

Verfolge COSMOS 2501 in Echtzeit mit AllMySat

Download on the App Store